Location: Newark
(52.2090°N, 4.1550°W)
Time: 09:03:23
(UTC+00:00)

Explorer 7 - Pass Details

Date: 18 September 2019
Orbit: 485 x 680 km, 50.3° (Epoch: 13 October)

Event Time Altitude Azimuth Distance (km) Brightness Sun altitude
Exits shadow 03:23:23 64° 224° (SW) 747 7.1 -22.4°
Maximum altitude 03:23:50 69° 187° (S) 724 7.1 -22.4°
Drops below altitude 10° 03:28:44 10° 105° (ESE) 2,119 10.3 -21.8°
Sets 03:31:07 0° 103° (ESE) 3,032 11.2 -21.5°
